Regional Weather Roundup
Issued by NWS Kansas City/Pleasant Hill, MO

Home | Current Version | Previous Version | Graphics & Text | Print | Product List | Glossary Off
Versions: 1 2 3 4 5 6 7 8 9 10 11 12 13 14 15 16 17 18 19 20 21 22 23 24 25 26 27

000
ASUS43 KEAX 271610
RWREAX

WEATHER ROUNDUP FOR EASTERN KANSAS AND NORTHWEST MISSOURI
NATIONAL WEATHER SERVICE KANSAS CITY/PLEASANT HILL MO
1100 AM CDT WED JUL 27 2016

KSZ040-057-103>105-MOZ028-029-037-043-271700-
...KANSAS CITY METROPOLITAN AREA...

CITY           SKY/WX    TMP DP  RH WIND       PRES   REMARKS
K.C. INTL      MOSUNNY   83  70  64 S5        29.99F
K.C. DOWNTOWN  SUNNY     86  68  54 SE15      29.94F
LEES SUMMIT    SUNNY     83  72  69 VRB3      30.00F
OLATHE - IXD   SUNNY     85  69  58 NE6       30.00F
OLATHE - OJC   SUNNY     83  69  62 E7        29.99F
LAWRENCE       SUNNY     84  70  62 SE7       29.98F

$$

MOZ001>008-011>017-020>025-030>033-038>040-044>046-053-054-271700-
...NORTHERN AND CENTRAL MISSOURI...

CITY           SKY/WX    TMP DP  RH WIND       PRES   REMARKS
ST. JOSEPH     SUNNY     81  69  67 VRB3      30.00R
MOSBY          SUNNY     81  72  74 E6        29.98F
WHITEMAN AFB   PTSUNNY   83  73  70 SE5       29.99R
CLINTON        PTSUNNY   82  75  78 CALM      30.00R
SEDALIA        MOSUNNY   85  74  69 VRB5      30.01R HX  92
WARSAW         NOT AVBL
CHILLICOTHE      N/A     84  71  65 CALM      30.00S
KIRKSVILLE     MOSUNNY   84  71  65 SE5       30.02S

$$

MOZ041-047>049-056>058-063>065-088>090-097-271700-
...EASTERN AND SOUTHERN MISSOURI...

CITY           SKY/WX    TMP DP  RH WIND       PRES   REMARKS
ST. LOUIS INTL MOSUNNY   85  73  67 VRB3      30.00S HX  91
SPIRIT OF STL  PTSUNNY   84  74  71 SW7       29.98S HX  91
COLUMBIA       MOSUNNY   83  73  72 SW6       30.00S
JEFFERSON CITY MOSUNNY   83  72  69 SE5       29.98F
ROLLA          PTSUNNY   81  73  76 SW6       30.01R
OSAGE BEACH    MOSUNNY   83  75  77 VRB7      29.99F HX  90
SPRINGFIELD    CLOUDY    76  72  87 W3        30.01S
BRANSON        PTSUNNY   82  73  74 SE3       30.03F
JOPLIN         MOSUNNY   81  75  82 SE5       29.99F
WEST PLAINS    MOSUNNY   83  72  69 VRB3      30.04S

$$

IAZ060-094-KSZ022-034>040-054-083-096-NEZ052-066-093-271700-
...KANSAS...SOUTHEAST NEBRASKA AND IOWA...

CITY           SKY/WX    TMP DP  RH WIND       PRES   REMARKS
TOPEKA         SUNNY     84  70  62 SE5       29.99R
MANHATTAN      MOSUNNY   84  72  67 SE5       30.01R
EMPORIA        MOSUNNY   84  73  69 S12       29.99R HX  90
CHANUTE        SUNNY     84  74  71 S5        29.98S HX  91
WICHITA        PTSUNNY   84  74  71 SE7       29.99R HX  91
OMAHA          CLOUDY    82  69  64 S13       29.98F
LINCOLN        SUNNY     82  63  52 SW10      30.01F
FALLS CITY     CLOUDY    82  71  69 VRB5      30.02R
LAMONI         CLOUDY    79  68  69 S3        30.02R
DES MOINES     CLOUDY    80  68  66 S8        30.00S

$$





USA.gov is the U.S. government's official web portal to all federal, state and local government web resources and services.